الكل
San Ysidro Ranch Airport (Catarina, TX) TS40 حالة الطقس
There is no TAF data available at TS40 or any nearby airports.
There is no METAR data available at TS40. Showing METAR data for KCZT (16 mi شمالي غربي).
محفوظات أحدث تقرير روتيني عن حالة الطقس من أجل الطيران (الميتار) CZT ( لا توجد بيانات لـTS40)
| Date | Time (CDT) | Flight Rules | Wind Dir. | Speed | Type | Height AGL (ft) | Visibility | Temp (°C) | Temp (°F) | Dew Point (°C) | Dew Point (°F) | Rel. Humid. | Pressure | Density Altitude | Remarks |
|---|---|---|---|---|---|---|---|---|---|---|---|---|---|---|---|
| 02-سبت | 12:55 | VFR | 100° | 5 kt | 10 miles | 37° | 98° | 22° | 71° | 42% | 29.95 in Hg | 3,208 ft | |||
| 02-سبت | 12:35 | VFR | Calm | 10 miles | 36° | 96° | 23° | 73° | 47% | 29.97 in Hg | 3,068 ft | ||||
| 02-سبت | 12:15 | VFR | 100° | 5 kt | 10 miles | 36° | 96° | 23° | 73° | 47% | 29.97 in Hg | 3,068 ft | |||
| 02-سبت | 11:55 | VFR | Calm | 10 miles | 35° | 95° | 23° | 73° | 50% | 29.98 in Hg | 2,938 ft | ||||
| 02-سبت | 11:35 | VFR | 170° | 3 kt | 10 miles | 35° | 95° | 23° | 73° | 50% | 29.99 in Hg | 2,928 ft | |||
| 02-سبت | 11:15 | VFR | 180° | 5 kt | 10 miles | 33° | 91° | 23° | 73° | 56% | 29.99 in Hg | 2,688 ft | |||
| 02-سبت | 10:55 | VFR | 130° | 4 kt | 10 miles | 33° | 91° | 23° | 73° | 56% | 29.99 in Hg | 2,688 ft | |||
| 02-سبت | 10:15 | VFR | 160° | 5 kt | 10 miles | 31° | 87° | 23° | 73° | 63% | 29.99 in Hg | 2,448 ft | |||
| 02-سبت | 09:55 | VFR | 170° | 3 kt | 10 miles | 30° | 86° | 23° | 73° | 66% | 29.99 in Hg | 2,328 ft | |||
| 02-سبت | 09:35 | VFR | 170° | 7 kt | 10 miles | 30° | 86° | 23° | 73° | 66% | 29.99 in Hg | 2,328 ft | |||
| 02-سبت | 09:15 | VFR | 140° | 5 kt | 10 miles | 28° | 82° | 23° | 73° | 74% | 29.99 in Hg | 2,088 ft | |||
| 02-سبت | 08:55 | VFR | 130° | 7 kt | 10 miles | 27° | 80° | 22° | 71° | 74% | 29.99 in Hg | 1,968 ft | |||
| 02-سبت | 08:35 | VFR | 120° | 4 kt | 10 miles | 26° | 78° | 22° | 71° | 79% | 29.99 in Hg | 1,848 ft | |||
| 02-سبت | 08:15 | VFR | 120° | 4 kt | 10 miles | 25° | 77° | 22° | 71° | 83% | 29.98 in Hg | 1,738 ft | |||
| 02-سبت | 07:55 | VFR | Calm | 10 miles | 25° | 77° | 23° | 73° | 89% | 29.98 in Hg | 1,738 ft | ||||
| 02-سبت | 07:15 | VFR | 110° | 3 kt | 10 miles | 23° | 73° | 22° | 71° | 94% | 29.97 in Hg | 1,508 ft | |||
| 02-سبت | 06:55 | VFR | Calm | 10 miles | 23° | 73° | 21° | 69° | 89% | 29.97 in Hg | 1,508 ft | ||||
| 02-سبت | 06:35 | VFR | 110° | 3 kt | 10 miles | 23° | 73° | 21° | 69° | 89% | 29.96 in Hg | 1,518 ft | |||
| 02-سبت | 06:15 | VFR | Calm | 10 miles | 24° | 75° | 21° | 69° | 83% | 29.96 in Hg | 1,638 ft | ||||
| 02-سبت | 05:55 | VFR | Calm | 10 miles | 25° | 77° | 21° | 69° | 79% | 29.96 in Hg | 1,758 ft | ||||
| 02-سبت | 05:35 | VFR | Calm | 10 miles | 25° | 77° | 21° | 69° | 79% | 29.96 in Hg | 1,758 ft | ||||
| 02-سبت | 05:15 | VFR | 110° | 4 kt | 10 miles | 26° | 78° | 21° | 69° | 74% | 29.95 in Hg | 1,888 ft | |||
| 02-سبت | 04:55 | VFR | 120° | 4 kt | 10 miles | 26° | 78° | 21° | 69° | 74% | 29.95 in Hg | 1,888 ft | |||
| 02-سبت | 04:35 | VFR | 130° | 3 kt | 10 miles | 26° | 78° | 21° | 69° | 74% | 29.96 in Hg | 1,878 ft |
تسجيل الدخول
| مُتصفحك غير مُدعَّم. قم بترقية متصفحك |
